When you browse on this site, cookies collect data to enhance your experience and personalize the content and advertising you see.
Visit our Privacy Policy to learn more. By continuing to use the site, you agree to this use of cookies and data.
  • In United Kingdom
  • List of Countries
  • For 7 days
  • Water Temperature
  • Weather Map
  • Weather Widgets
  • user-avatar
    Login

    Hourly Weather Dinagepoor

    Today, 18 August, Sunday

    Time Temperature Precipitation Wind Pressure Humidity
    00:00 +32°C° 0 mm 1 mps 749 mmHg 74%
    01:00 +31°C° 0 mm 2 mps 749 mmHg 75%
    02:00 +31°C° 0 mm 2 mps 749 mmHg 77%
    03:00 +31°C° 0 mm 2 mps 749 mmHg 79%
    04:00 +30°C° 0 mm 3 mps 749 mmHg 80%
    05:00 +30°C° 0 mm 3 mps 749 mmHg 82%
    06:00 +29°C° 0 mm 2 mps 749 mmHg 86%
    07:00 +30°C° 0 mm 3 mps 750 mmHg 81%
    08:00 +32°C° 0 mm 4 mps 750 mmHg 77%
    09:00 +33°C° 0 mm 4 mps 751 mmHg 72%
    10:00 +34°C° 0.2 mm 5 mps 750 mmHg 68%
    11:00 +35°C° 0.2 mm 5 mps 750 mmHg 64%
    12:00 +36°C° 0 mm 4 mps 750 mmHg 58%
    13:00 +37°C° 0.1 mm 4 mps 750 mmHg 56%
    14:00 +37°C° 0.1 mm 4 mps 749 mmHg 54%
    15:00 +37°C° 0.1 mm 4 mps 749 mmHg 53%
    16:00 +37°C° 0.2 mm 4 mps 748 mmHg 56%
    17:00 +36°C° 0.2 mm 4 mps 748 mmHg 59%
    18:00 +35°C° 0.2 mm 4 mps 748 mmHg 63%
    19:00 +34°C° 0.2 mm 4 mps 749 mmHg 67%
    20:00 +33°C° 0.2 mm 3 mps 749 mmHg 72%
    21:00 +31°C° 0.2 mm 3 mps 750 mmHg 76%
    22:00 +31°C° 0 mm 3 mps 750 mmHg 78%
    23:00 +30°C° 0 mm 4 mps 750 mmHg 80%

    Tomorrow, 19 August, Monday

    Time Temperature Precipitation Wind Pressure Humidity
    00:00 +30°C° 0 mm 4 mps 751 mmHg 82%
    01:00 +30°C° 0 mm 4 mps 750 mmHg 83%
    02:00 +29°C° 0 mm 4 mps 750 mmHg 84%
    03:00 +29°C° 0 mm 4 mps 750 mmHg 86%
    04:00 +29°C° 0 mm 4 mps 750 mmHg 86%
    05:00 +28°C° 0 mm 3 mps 750 mmHg 86%
    06:00 +28°C° 0 mm 3 mps 750 mmHg 86%
    07:00 +29°C° 0 mm 3 mps 751 mmHg 81%
    08:00 +32°C° 0 mm 4 mps 751 mmHg 76%
    09:00 +33°C° 0 mm 4 mps 752 mmHg 70%
    10:00 +34°C° 0.2 mm 4 mps 751 mmHg 67%
    11:00 +35°C° 0.2 mm 4 mps 751 mmHg 64%
    12:00 +35°C° 0.2 mm 4 mps 750 mmHg 61%
    13:00 +36°C° 0.3 mm 4 mps 750 mmHg 59%
    14:00 +36°C° 0.3 mm 4 mps 749 mmHg 58%
    15:00 +36°C° 0.3 mm 4 mps 748 mmHg 57%
    16:00 +36°C° 0.1 mm 4 mps 748 mmHg 59%
    17:00 +35°C° 0.1 mm 3 mps 748 mmHg 61%
    18:00 +35°C° 0.1 mm 3 mps 748 mmHg 63%
    19:00 +34°C° 0 mm 3 mps 749 mmHg 67%
    20:00 +33°C° 0 mm 3 mps 750 mmHg 72%
    21:00 +31°C° 0 mm 3 mps 751 mmHg 76%
    22:00 +31°C° 0.1 mm 3 mps 751 mmHg 77%
    23:00 +32°C° 0.1 mm 4 mps 751 mmHg 79%

    Day after tomorrow, 20 August, Tuesday

    Time Temperature Precipitation Wind Pressure Humidity
    00:00 +30°C° 0.1 mm 4 mps 751 mmHg 80%
    01:00 +30°C° 0.1 mm 4 mps 750 mmHg 81%
    02:00 +30°C° 0.1 mm 4 mps 750 mmHg 82%
    03:00 +29°C° 0.1 mm 4 mps 750 mmHg 82%
    04:00 +29°C° 0 mm 3 mps 750 mmHg 84%
    05:00 +29°C° 0 mm 3 mps 750 mmHg 85%
    06:00 +29°C° 0 mm 3 mps 750 mmHg 86%
    07:00 +30°C° 0.2 mm 3 mps 750 mmHg 82%
    08:00 +32°C° 0.2 mm 4 mps 751 mmHg 78%
    09:00 +33°C° 0.2 mm 4 mps 751 mmHg 74%
    10:00 +34°C° 0.6 mm 4 mps 751 mmHg 69%
    11:00 +35°C° 0.6 mm 4 mps 750 mmHg 63%
    12:00 +36°C° 0.6 mm 4 mps 750 mmHg 58%
    13:00 +37°C° 0.3 mm 4 mps 749 mmHg 57%
    14:00 +37°C° 0.3 mm 5 mps 748 mmHg 56%
    15:00 +37°C° 0.3 mm 5 mps 748 mmHg 55%
    16:00 +37°C° 0.2 mm 4 mps 748 mmHg 58%
    17:00 +36°C° 0.2 mm 4 mps 748 mmHg 60%
    18:00 +35°C° 0.2 mm 4 mps 747 mmHg 63%
    19:00 +34°C° 0.2 mm 3 mps 748 mmHg 67%
    20:00 +34°C° 0.2 mm 3 mps 749 mmHg 70%
    21:00 +33°C° 0.2 mm 3 mps 749 mmHg 74%
    22:00 +33°C° 0.1 mm 3 mps 749 mmHg 76%
    23:00 +31°C° 0.1 mm 3 mps 749 mmHg 77%

    21 August, Wednesday

    Time Temperature Precipitation Wind Pressure Humidity
    00:00 +31°C° 0.1 mm 3 mps 749 mmHg 79%
    01:00 +30°C° 0 mm 3 mps 749 mmHg 81%
    02:00 +30°C° 0 mm 3 mps 749 mmHg 82%
    03:00 +30°C° 0 mm 3 mps 748 mmHg 84%
    04:00 +29°C° 0.6 mm 3 mps 748 mmHg 85%
    05:00 +29°C° 0.6 mm 3 mps 749 mmHg 86%
    06:00 +29°C° 0.6 mm 3 mps 749 mmHg 87%
    07:00 +30°C° 0 mm 3 mps 749 mmHg 82%
    08:00 +31°C° 0 mm 3 mps 749 mmHg 76%
    09:00 +33°C° 0 mm 4 mps 749 mmHg 71%
    10:00 +35°C° 0 mm 4 mps 749 mmHg 64%
    11:00 +36°C° 0 mm 4 mps 749 mmHg 57%
    12:00 +37°C° 0 mm 4 mps 749 mmHg 49%
    13:00 +38°C° 0 mm 4 mps 748 mmHg 47%
    14:00 +38°C° 0 mm 3 mps 747 mmHg 46%
    15:00 +39°C° 0 mm 3 mps 746 mmHg 44%
    16:00 +38°C° 0 mm 3 mps 746 mmHg 47%
    17:00 +37°C° 0 mm 3 mps 746 mmHg 51%
    18:00 +37°C° 0 mm 3 mps 746 mmHg 54%
    19:00 +36°C° 0 mm 3 mps 747 mmHg 58%
    20:00 +35°C° 0 mm 3 mps 747 mmHg 62%
    21:00 +34°C° 0 mm 3 mps 748 mmHg 65%
    22:00 +34°C° 0 mm 3 mps 748 mmHg 68%
    23:00 +33°C° 0 mm 3 mps 748 mmHg 70%

    22 August, Thursday

    Time Temperature Precipitation Wind Pressure Humidity
    00:00 +33°C° 0 mm 3 mps 748 mmHg 72%
    01:00 +31°C° 0.2 mm 3 mps 748 mmHg 75%
    02:00 +31°C° 0.2 mm 3 mps 747 mmHg 78%
    03:00 +30°C° 0.2 mm 3 mps 747 mmHg 81%
    04:00 +30°C° 0.1 mm 3 mps 747 mmHg 82%
    05:00 +30°C° 0.1 mm 3 mps 747 mmHg 84%
    06:00 +29°C° 0.1 mm 3 mps 747 mmHg 85%
    07:00 +31°C° 0.4 mm 3 mps 748 mmHg 79%
    08:00 +33°C° 0.4 mm 3 mps 748 mmHg 73%
    09:00 +34°C° 0.4 mm 4 mps 749 mmHg 66%
    10:00 +35°C° 0 mm 4 mps 748 mmHg 61%
    11:00 +36°C° 0 mm 4 mps 748 mmHg 55%
    12:00 +38°C° 0 mm 4 mps 748 mmHg 49%
    13:00 +38°C° 0 mm 4 mps 747 mmHg 47%
    14:00 +40°C° 0 mm 4 mps 746 mmHg 45%
    15:00 +40°C° 0 mm 4 mps 745 mmHg 44%
    16:00 +38°C° 0 mm 4 mps 746 mmHg 48%
    17:00 +37°C° 0 mm 3 mps 746 mmHg 52%
    18:00 +36°C° 0 mm 3 mps 746 mmHg 56%
    19:00 +35°C° 0 mm 4 mps 746 mmHg 60%
    20:00 +35°C° 0 mm 4 mps 747 mmHg 64%
    21:00 +34°C° 0 mm 4 mps 748 mmHg 67%
    22:00 +33°C° 0 mm 4 mps 748 mmHg 69%
    23:00 +33°C° 0 mm 4 mps 748 mmHg 70%

    23 August, Friday

    Time Temperature Precipitation Wind Pressure Humidity
    00:00 +33°C° 0 mm 4 mps 748 mmHg 71%
    01:00 +32°C° 0 mm 5 mps 748 mmHg 74%
    02:00 +32°C° 0 mm 5 mps 748 mmHg 76%
    03:00 +30°C° 0 mm 5 mps 747 mmHg 78%
    04:00 +30°C° 0 mm 4 mps 748 mmHg 79%
    05:00 +30°C° 0 mm 3 mps 748 mmHg 80%
    06:00 +29°C° 0 mm 3 mps 748 mmHg 81%
    07:00 +30°C° 0 mm 3 mps 749 mmHg 79%
    08:00 +30°C° 0 mm 3 mps 749 mmHg 77%
    09:00 +32°C° 0 mm 4 mps 750 mmHg 75%
    10:00 +32°C° 0.1 mm 4 mps 750 mmHg 73%
    11:00 +33°C° 0.1 mm 4 mps 750 mmHg 71%
    12:00 +33°C° 0.1 mm 4 mps 750 mmHg 69%
    13:00 +33°C° 0.1 mm 4 mps 749 mmHg 70%
    14:00 +33°C° 0.1 mm 5 mps 749 mmHg 70%
    15:00 +33°C° 0.1 mm 5 mps 749 mmHg 71%
    16:00 +32°C° 0 mm 5 mps 749 mmHg 74%
    17:00 +32°C° 0 mm 5 mps 749 mmHg 76%
    18:00 +30°C° 0 mm 5 mps 749 mmHg 79%
    19:00 +30°C° 0 mm 5 mps 750 mmHg 79%
    20:00 +30°C° 0 mm 5 mps 750 mmHg 79%
    21:00 +29°C° 0 mm 4 mps 751 mmHg 79%
    22:00 +29°C° 0.1 mm 4 mps 751 mmHg 79%
    23:00 +29°C° 0.1 mm 4 mps 751 mmHg 79%
    Show more